sat.trackr.live / text

‹ back to catalog

STARLINK-30940

NORAD 58409 · 2023-180H

PAYLOAD ACTIVE UNKNOWN

§ Identity

Operator
Country
US
Launch date
2023-11-22
Launch site
AFETR
Launch vehicle
Mass (kg)
RCS (m²)

Purposes: comms

External: N2YO · Heavens-Above · Gunter

§ Orbital elements

Epoch: 2026-09-20T08:36:34.189056Z

Period
94.27 min
Inclination
43.0035°
Eccentricity
0.0001548
Mean motion
15.27574831 rev/d
Perigee alt
482.0 km
Apogee alt
484.1 km
Semi-major
6,861.2 km
B*
2.1502e-5
RAAN
248.0807°
Arg perigee
266.9007°
Mean anomaly
93.1668°
Rev number
15,910

§ Raw data

STARLINK-309401 58409U 23180H   26263.35872904  .00000329  00000+0  21502-4 0  99942 58409  43.0035 248.0807 0001548 266.9007  93.1668 15.27574831159102

JSON: /api/v1/satellites/58409 · /tle

For live sub-satellite position, see the globe view (requires WebGL).

§ Visibility from observer

Set your observer location to see the next 7 days of passes ≥ 10°. The values pass through the URL so the page stays shareable.

No JS? Fill the form by hand. The geolocation button needs JavaScript.